Regional Weather Roundup
Issued by NWS

Home | Current Version | Previous Version | Graphics & Text | Print | Product List | Glossary On
Versions: 1 2 3 4 5 6 7 8 9 10 11 12 13 14 15 16 17 18 19 20 21 22 23 24 25 26 27 28 29 30 31 32 33 34 35 36 37 38 39 40 41 42 43 44 45 46 47 48 49 50
000
ASUS43 KBIS 300102
RWRND

NORTH DAKOTA REGIONAL WEATHER ROUNDUP
NATIONAL WEATHER SERVICE BISMARCK ND
800 PM CDT WED JUL 29 2015

NOTE: "FAIR" INDICATES FEW OR NO CLOUDS BELOW 12,000 FEET WITH NO
SIGNIFICANT WEATHER AND/OR OBSTRUCTIONS TO VISIBILITY.


NDZ001>003-009>011-017-300200-
NORTHWEST NORTH DAKOTA

CITY           SKY/WX    TMP DP  RH WIND       PRES   REMARKS
WILLISTON      SUNNY     80  44  27 N14       30.06S
MINOT          SUNNY     77  48  35 W18G25    29.98S
MINOT AFB      SUNNY     79  55  43 W13       29.97R
$$

NDZ018>021-031>035-040>046-300200-
SOUTHWEST NORTH DAKOTA

CITY           SKY/WX    TMP DP  RH WIND       PRES   REMARKS
BISMARCK       SUNNY     80  47  31 NW13      30.03S
DICKINSON      SUNNY     76  45  33 NW10      30.08S
GARRISON         N/A     74  54  49 NW10      30.01S
HETTINGER ARPT SUNNY     78  43  28 W10       30.12S
$$

NDZ004>008-012>016-024-026-027-054-300200-
NORTHEAST NORTH DAKOTA

CITY           SKY/WX    TMP DP  RH WIND       PRES   REMARKS
GRAND FORKS    PTCLDY    78  56  46 W13       29.87R
GRND FRKS AFB  PTCLDY    77  56  48 NW10      29.88R
DEVILS LAKE    SUNNY     77  54  44 W17       29.92R
$$

NDZ022-023-025-028>030-036>039-047>053-300200-
SOUTHEAST NORTH DAKOTA

CITY           SKY/WX    TMP DP  RH WIND       PRES   REMARKS
FARGO          PTCLDY    76  57  51 W10       29.92S
JAMESTOWN      SUNNY     76  53  44 W10       29.98S
$$



USA.gov is the U.S. government's official web portal to all federal, state and local government web resources and services.